Location: Melbourne
(37.8170°S, 144.9670°E)
Time: 12:52:49
(UTC+11:00)

Aureole 2 Rocket - Visible Passes

Search period start: 18 October 2017 00:00
Search period end: 28 October 2017 00:00
Orbit: 326 x 552 km, 73.9° (Epoch: 17 October)

Date Brightness Start Highest point End Pass type
(mag) Time Alt. Az. Time Alt. Az. Time Alt. Az.
21 Oct 5.2 21:38:16 11° SE 21:38:16 11° SE 21:38:27 10° SE visible
21 Oct 5.9 23:11:34 12° SW 23:11:34 12° SW 23:12:13 10° SSW visible
22 Oct 4.9 20:57:44 11° ESE 20:57:44 11° ESE 20:58:04 10° ESE visible
22 Oct 4.7 22:31:01 27° SW 22:31:01 27° SW 22:33:38 10° S visible
23 Oct 3.0 21:49:31 39° NW 21:50:44 63° WSW 21:54:23 10° S visible
24 Oct 2.6 21:07:19 10° N 21:11:08 55° ENE 21:14:45 10° SSE visible
25 Oct 3.7 20:28:25 10° NNE 20:31:35 24° ENE 20:34:36 10° SE visible
25 Oct 5.3 22:03:44 10° WNW 22:06:32 19° WSW 22:09:14 10° SSW visible
26 Oct 4.0 21:23:08 10° NW 21:26:46 40° WSW 21:30:11 10° S visible
27 Oct 2.5 20:43:13 10° NNW 20:47:03 85° ENE 20:50:38 10° SSE visible
